SL-14 R/B

Last updated on Sun Oct 19 2025 00:02:14 GMT+0000 (Coordinated Universal Time)

1 21423U 91042B 25291.27104589 .00000598 00000+0 72887-4 0 9990 2 21423 82.4957 353.7389 0016824 354.4556 5.6469 14.81666953831988
UTC large
Height (km)
Speed (km/s)
/
Latitude / Longitude
Inclination (degrees)
Orbital Period (minutes)
Azimuth
Elevation
Range (km)
Doppler Factor

Next 0 passes for location: London (51.5072 / 0.1276)

Sorry there are no passes over London.